| time (UTC) | temp C | wind direction | speed KPH | gust KPH | rain 1hr cm | rain 24hr cm | rain mn cm | humidity % | barometer mb |
| 20260506032832 | 25 | 205 | 4.8 | 17.7 | 0.00 | 0.00 | 0.00 | 80 | 1007.5 |
| 20260506032405 | 25 | 167 | 8.0 | 17.7 | 0.00 | 0.00 | 0.00 | 80 | 1007.5 |
| 20260506031831 | 25 | 175 | 9.7 | 16.1 | 0.00 | 0.00 | 0.00 | 80 | 1007.4 |
| 20260506031340 | 25 | 175 | 6.4 | 16.1 | 0.00 | 0.00 | 0.00 | 80 | 1007.4 |
| 20260506030828 | 25 | 165 | 6.4 | 12.9 | 0.00 | 0.00 | 0.00 | 80 | 1007.3 |
| 20260506030332 | 25 | 139 | 6.4 | 20.9 | 0.00 | 0.00 | 0.00 | 80 | 1007.3 |
| 20260506025829 | 25 | 164 | 8.0 | 20.9 | 0.00 | 0.00 | 0.00 | 80 | 1007.2 |
| 20260506025328 | 25 | 140 | 6.4 | 16.1 | 0.00 | 0.00 | 0.00 | 80 | 1007.1 |
| 20260506024842 | 25 | 136 | 8.0 | 16.1 | 0.00 | 0.00 | 0.00 | 80 | 1007.0 |
| 20260506024329 | 25 | 159 | 8.0 | 16.1 | 0.00 | 0.00 | 0.00 | 79 | 1007.0 |
| 20260506023832 | 25 | 149 | 4.8 | 19.3 | 0.00 | 0.00 | 0.00 | 80 | 1006.9 |
| 20260506023320 | 25 | 138 | 8.0 | 17.7 | 0.00 | 0.00 | 0.00 | 79 | 1006.8 |
| 20260506022833 | 25 | 176 | 4.8 | 19.3 | 0.00 | 0.00 | 0.00 | 79 | 1006.8 |
| 20260506022318 | 26 | 164 | 6.4 | 19.3 | 0.00 | 0.00 | 0.00 | 79 | 1006.8 |
| 20260506021851 | 26 | 157 | 6.4 | 16.1 | 0.00 | 0.00 | 0.00 | 79 | 1006.7 |
| 20260506021332 | 26 | 223 | 6.4 | 16.1 | 0.00 | 0.00 | 0.00 | 79 | 1006.6 |
| 20260506020844 | 26 | 194 | 4.8 | 14.5 | 0.00 | 0.00 | 0.00 | 79 | 1006.7 |
| 20260506020328 | 26 | 165 | 6.4 | 12.9 | 0.00 | 0.00 | 0.00 | 79 | 1006.7 |
| 20260506015845 | 26 | 182 | 4.8 | 14.5 | 0.00 | 0.00 | 0.00 | 79 | 1006.7 |
| 20260506015329 | 26 | 178 | 6.4 | 14.5 | 0.00 | 0.00 | 0.00 | 79 | 1006.6 |
| 20260506014836 | 26 | 171 | 4.8 | 12.9 | 0.00 | 0.00 | 0.00 | 79 | 1006.5 |
| 20260506014320 | 26 | 186 | 6.4 | 12.9 | 0.00 | 0.00 | 0.00 | 79 | 1006.5 |
| 20260506013834 | 26 | 182 | 3.2 | 8.0 | 0.00 | 0.00 | 0.00 | 79 | 1006.6 |
| 20260506013342 | 26 | 173 | 4.8 | 17.7 | 0.00 | 0.00 | 0.00 | 78 | 1006.4 |
| 20260506012834 | 26 | 184 | 4.8 | 17.7 | 0.00 | 0.00 | 0.00 | 78 | 1006.4 |
| 20260506012341 | 26 | 163 | 6.4 | 19.3 | 0.00 | 0.00 | 0.00 | 79 | 1006.2 |
| 20260506011832 | 26 | 179 | 6.4 | 14.5 | 0.00 | 0.00 | 0.00 | 78 | 1006.2 |
| 20260506011358 | 26 | 199 | 4.8 | 14.5 | 0.00 | 0.00 | 0.00 | 78 | 1006.1 |
| 20260506010831 | 26 | 181 | 8.0 | 17.7 | 0.00 | 0.00 | 0.00 | 78 | 1006.0 |
| 20260506010319 | 26 | 214 | 8.0 | 19.3 | 0.00 | 0.00 | 0.00 | 78 | 1006.0 |
| 20260506005828 | 26 | 150 | 11.3 | 19.3 | 0.00 | 0.00 | 0.00 | 78 | 1005.8 |
| 20260506005339 | 26 | 196 | 8.0 | 22.5 | 0.00 | 0.00 | 0.00 | 78 | 1005.6 |
| 20260506004828 | 26 | 187 | 9.7 | 22.5 | 0.00 | 0.00 | 0.00 | 78 | 1005.5 |
| 20260506004326 | 26 | 169 | 11.3 | 30.6 | 0.00 | 0.00 | 0.00 | 78 | 1005.5 |
| 20260506003843 | 27 | 186 | 9.7 | 30.6 | 0.00 | 0.00 | 0.00 | 78 | 1005.3 |
| 20260506003328 | 27 | 160 | 9.7 | 27.4 | 0.00 | 0.00 | 0.00 | 78 | 1005.2 |
| 20260506002834 | 27 | 223 | 8.0 | 24.1 | 0.00 | 0.00 | 0.00 | 78 | 1005.2 |
| 20260506002326 | 27 | 173 | 12.9 | 22.5 | 0.00 | 0.00 | 0.00 | 78 | 1005.2 |
| 20260506001835 | 27 | 161 | 11.3 | 27.4 | 0.00 | 0.00 | 0.00 | 78 | 1005.3 |
| 20260506001348 | 27 | 171 | 11.3 | 27.4 | 0.00 | 0.00 | 0.00 | 78 | 1005.3 |
| 20260506000835 | 27 | 205 | 11.3 | 19.3 | 0.00 | 0.00 | 0.00 | 78 | 1005.3 |
| 20260506000323 | 27 | 199 | 8.0 | 16.1 | 0.00 | 0.00 | 0.00 | 78 | 1005.3 |
| 20260505235836 | 27 | 200 | 6.4 | 20.9 | 0.00 | 0.00 | 0.00 | 78 | 1005.1 |
| 20260505235322 | 27 | 234 | 9.7 | 20.9 | 0.00 | 0.00 | 0.00 | 78 | 1005.0 |
| 20260505234837 | 27 | 146 | 8.0 | 24.1 | 0.00 | 0.00 | 0.00 | 78 | 1005.0 |
| 20260505234345 | 28 | 145 | 9.7 | 27.4 | 0.00 | 0.00 | 0.00 | 78 | 1005.0 |
| 20260505233838 | 28 | 203 | 12.9 | 25.7 | 0.00 | 0.00 | 0.00 | 79 | 1004.9 |
| 20260505233325 | 28 | 182 | 11.3 | 24.1 | 0.00 | 0.00 | 0.00 | 79 | 1004.9 |
| 20260505232830 | 28 | 192 | 11.3 | 24.1 | 0.00 | 0.00 | 0.00 | 79 | 1004.8 |
| 20260505232321 | 28 | 198 | 9.7 | 22.5 | 0.00 | 0.00 | 0.00 | 79 | 1004.9 |
| 20260505231828 | 28 | 151 | 8.0 | 19.3 | 0.00 | 0.00 | 0.00 | 79 | 1004.9 |
| 20260505231354 | 28 | 190 | 9.7 | 24.1 | 0.00 | 0.00 | 0.00 | 79 | 1004.9 |
| 20260505230819 | 28 | 102 | 11.3 | 20.9 | 0.00 | 0.00 | 0.00 | 79 | 1004.9 |
| 20260505230332 | 28 | 191 | 12.9 | 25.7 | 0.00 | 0.00 | 0.00 | 79 | 1004.9 |
| 20260505225837 | 28 | 169 | 9.7 | 32.2 | 0.00 | 0.00 | 0.00 | 79 | 1004.9 |
| 20260505225323 | 28 | 145 | 11.3 | 32.2 | 0.00 | 0.00 | 0.00 | 79 | 1004.8 |
| 20260505224835 | 28 | 176 | 16.1 | 33.8 | 0.00 | 0.00 | 0.00 | 79 | 1004.9 |
| 20260505224320 | 28 | 201 | 9.7 | 30.6 | 0.00 | 0.00 | 0.00 | 80 | 1004.9 |
| 20260505223828 | 29 | 221 | 16.1 | 30.6 | 0.00 | 0.00 | 0.00 | 80 | 1004.9 |
| 20260505223337 | 28 | 138 | 14.5 | 30.6 | 0.00 | 0.00 | 0.00 | 80 | 1005.0 |
| 20260505222852 | 28 | 199 | 14.5 | 29.0 | 0.00 | 0.00 | 0.00 | 80 | 1005.0 |
| 20260505222402 | 29 | 221 | 12.9 | 29.0 | 0.00 | 0.00 | 0.00 | 80 | 1005.1 |
| 20260505221849 | 29 | 209 | 12.9 | 27.4 | 0.00 | 0.00 | 0.00 | 80 | 1005.0 |
| 20260505221339 | 29 | 169 | 11.3 | 27.4 | 0.00 | 0.00 | 0.00 | 80 | 1005.1 |
| 20260505220852 | 29 | 142 | 12.9 | 30.6 | 0.00 | 0.00 | 0.00 | 81 | 1005.2 |
| 20260505220320 | 29 | 229 | 11.3 | 33.8 | 0.00 | 0.00 | 0.00 | 81 | 1005.2 |
| 20260505215823 | 29 | 207 | 17.7 | 33.8 | 0.00 | 0.00 | 0.00 | 81 | 1005.1 |
| 20260505215332 | 29 | 233 | 12.9 | 27.4 | 0.00 | 0.00 | 0.00 | 81 | 1005.3 |
| 20260505214817 | 29 | 212 | 9.7 | 24.1 | 0.00 | 0.00 | 0.00 | 81 | 1005.4 |
| 20260505214321 | 29 | 141 | 11.3 | 27.4 | 0.00 | 0.00 | 0.00 | 82 | 1005.4 |
| 20260505213853 | 29 | 180 | 12.9 | 27.4 | 0.00 | 0.00 | 0.00 | 82 | 1005.4 |
| 20260505213347 | 29 | 172 | 16.1 | 27.4 | 0.00 | 0.00 | 0.00 | 82 | 1005.4 |
| 20260505212833 | 29 | 187 | 11.3 | 25.7 | 0.00 | 0.00 | 0.00 | 82 | 1005.5 |
| 20260505212337 | 28 | 211 | 9.7 | 24.1 | 0.00 | 0.00 | 0.00 | 82 | 1005.5 |
| 20260505211822 | 29 | 207 | 11.3 | 22.5 | 0.00 | 0.00 | 0.00 | 82 | 1005.6 |
| 20260505211333 | 29 | 135 | 16.1 | 22.5 | 0.00 | 0.00 | 0.00 | 82 | 1005.7 |
| 20260505210833 | 29 | 173 | 14.5 | 25.7 | 0.00 | 0.00 | 0.00 | 83 | 1005.7 |
| 20260505210319 | 29 | 197 | 14.5 | 29.0 | 0.00 | 0.00 | 0.00 | 83 | 1005.8 |
| 20260505205832 | 28 | 238 | 9.7 | 27.4 | 0.00 | 0.00 | 0.00 | 83 | 1005.9 |
| 20260505205336 | 28 | 225 | 11.3 | 22.5 | 0.00 | 0.00 | 0.00 | 83 | 1006.1 |
| 20260505204820 | 28 | 211 | 12.9 | 30.6 | 0.00 | 0.00 | 0.00 | 83 | 1006.3 |
| 20260505204331 | 28 | 211 | 19.3 | 30.6 | 0.00 | 0.00 | 0.00 | 83 | 1006.5 |
| 20260505203838 | 28 | 219 | 9.7 | 27.4 | 0.00 | 0.00 | 0.00 | 84 | 1006.5 |
| 20260505203324 | 28 | 219 | 14.5 | 30.6 | 0.00 | 0.00 | 0.00 | 84 | 1006.5 |
| 20260505202838 | 28 | 172 | 14.5 | 30.6 | 0.00 | 0.00 | 0.00 | 84 | 1006.6 |
| 20260505202325 | 28 | 202 | 17.7 | 27.4 | 0.00 | 0.00 | 0.00 | 84 | 1006.6 |
| 20260505201831 | 28 | 222 | 12.9 | 32.2 | 0.00 | 0.00 | 0.00 | 84 | 1006.7 |
| 20260505201337 | 28 | 220 | 19.3 | 32.2 | 0.00 | 0.00 | 0.00 | 84 | 1006.7 |
| 20260505200828 | 28 | 248 | 17.7 | 32.2 | 0.00 | 0.00 | 0.00 | 85 | 1006.8 |
| 20260505200333 | 28 | 222 | 11.3 | 35.4 | 0.00 | 0.00 | 0.00 | 85 | 1006.8 |
| 20260505195824 | 28 | 240 | 20.9 | 35.4 | 0.00 | 0.00 | 0.00 | 85 | 1006.9 |
| 20260505195331 | 28 | 232 | 16.1 | 29.0 | 0.00 | 0.00 | 0.00 | 85 | 1006.9 |
| 20260505194845 | 28 | 200 | 17.7 | 38.6 | 0.00 | 0.00 | 0.00 | 85 | 1007.1 |
| 20260505194330 | 28 | 240 | 14.5 | 38.6 | 0.00 | 0.00 | 0.00 | 85 | 1007.0 |
| 20260505193842 | 28 | 221 | 14.5 | 40.2 | 0.00 | 0.00 | 0.00 | 85 | 1007.1 |
| 20260505193356 | 28 | 194 | 19.3 | 40.2 | 0.00 | 0.00 | 0.00 | 85 | 1007.2 |
| 20260505192823 | 28 | 240 | 16.1 | 30.6 | 0.00 | 0.00 | 0.00 | 85 | 1007.3 |
| 20260505192323 | 27 | 208 | 11.3 | 43.5 | 0.00 | 0.00 | 0.00 | 86 | 1007.3 |
| 20260505191854 | 27 | 202 | 14.5 | 43.5 | 0.00 | 0.00 | 0.00 | 86 | 1007.3 |
| 20260505191344 | 27 | 229 | 12.9 | 30.6 | 0.00 | 0.00 | 0.00 | 86 | 1007.4 |
| 20260505190826 | 27 | 211 | 19.3 | 32.2 | 0.00 | 0.00 | 0.00 | 86 | 1007.5 |
| 20260505190338 | 27 | 230 | 17.7 | 29.0 | 0.00 | 0.00 | 0.00 | 86 | 1007.5 |
| 20260505185847 | 27 | 227 | 14.5 | 30.6 | 0.00 | 0.00 | 0.00 | 86 | 1007.6 |
| 20260505185330 | 27 | 218 | 14.5 | 33.8 | 0.00 | 0.00 | 0.00 | 86 | 1007.6 |
| 20260505184817 | 27 | 208 | 16.1 | 37.0 | 0.00 | 0.00 | 0.00 | 86 | 1007.6 |
| 20260505184323 | 27 | 182 | 9.7 | 37.0 | 0.00 | 0.00 | 0.00 | 86 | 1007.7 |
| 20260505183839 | 27 | 195 | 12.9 | 30.6 | 0.00 | 0.00 | 0.00 | 86 | 1007.6 |
| 20260505183345 | 26 | 209 | 14.5 | 32.2 | 0.00 | 0.00 | 0.00 | 86 | 1007.6 |
| 20260505182834 | 26 | 232 | 12.9 | 33.8 | 0.00 | 0.00 | 0.00 | 86 | 1007.6 |
| 20260505182320 | 26 | 252 | 17.7 | 33.8 | 0.00 | 0.00 | 0.00 | 86 | 1007.7 |
| 20260505181826 | 26 | 212 | 16.1 | 29.0 | 0.00 | 0.00 | 0.00 | 86 | 1007.7 |
| 20260505181358 | 26 | 214 | 14.5 | 32.2 | 0.00 | 0.00 | 0.00 | 86 | 1007.7 |
| 20260505180848 | 26 | 184 | 16.1 | 32.2 | 0.00 | 0.00 | 0.00 | 86 | 1007.8 |
| 20260505180334 | 26 | 197 | 14.5 | 35.4 | 0.00 | 0.00 | 0.00 | 86 | 1007.8 |
| 20260505175821 | 26 | 234 | 16.1 | 35.4 | 0.00 | 0.00 | 0.00 | 86 | 1007.7 |
| 20260505175328 | 26 | 223 | 11.3 | 25.7 | 0.00 | 0.00 | 0.00 | 86 | 1007.8 |
| 20260505174833 | 26 | 207 | 12.9 | 35.4 | 0.00 | 0.00 | 0.00 | 86 | 1007.8 |
| 20260505174317 | 25 | 140 | 20.9 | 35.4 | 0.00 | 0.00 | 0.00 | 86 | 1007.9 |
| 20260505173828 | 25 | 223 | 12.9 | 27.4 | 0.00 | 0.00 | 0.00 | 86 | 1007.9 |
| 20260505173334 | 25 | 190 | 12.9 | 27.4 | 0.00 | 0.00 | 0.00 | 86 | 1008.0 |
| 20260505172846 | 25 | 202 | 14.5 | 29.0 | 0.00 | 0.00 | 0.00 | 86 | 1008.1 |
| 20260505172331 | 25 | 227 | 9.7 | 24.1 | 0.00 | 0.00 | 0.00 | 86 | 1008.1 |
| 20260505171820 | 25 | 213 | 11.3 | 24.1 | 0.00 | 0.00 | 0.00 | 86 | 1008.1 |
| 20260505171325 | 25 | 238 | 12.9 | 25.7 | 0.00 | 0.00 | 0.00 | 86 | 1008.2 |
| 20260505170836 | 24 | 211 | 9.7 | 22.5 | 0.00 | 0.00 | 0.00 | 86 | 1008.2 |
| 20260505170324 | 24 | 190 | 9.7 | 24.1 | 0.00 | 0.00 | 0.00 | 86 | 1008.4 |
| 20260505165829 | 24 | 232 | 11.3 | 24.1 | 0.00 | 0.00 | 0.00 | 86 | 1008.3 |
| 20260505165319 | 24 | 213 | 9.7 | 25.7 | 0.00 | 0.00 | 0.00 | 86 | 1008.3 |
| 20260505164828 | 24 | 180 | 12.9 | 25.7 | 0.00 | 0.00 | 0.00 | 86 | 1008.2 |
| 20260505164339 | 24 | 212 | 12.9 | 22.5 | 0.00 | 0.00 | 0.00 | 86 | 1008.3 |
| 20260505163824 | 24 | 186 | 9.7 | 32.2 | 0.00 | 0.00 | 0.00 | 86 | 1008.2 |
| 20260505163357 | 24 | 236 | 16.1 | 35.4 | 0.00 | 0.00 | 0.00 | 86 | 1008.3 |
| 20260505162819 | 23 | 180 | 12.9 | 32.2 | 0.00 | 0.00 | 0.00 | 86 | 1008.3 |
| 20260505162347 | 23 | 198 | 11.3 | 30.6 | 0.00 | 0.00 | 0.00 | 85 | 1008.3 |
| 20260505161833 | 23 | 178 | 11.3 | 30.6 | 0.00 | 0.00 | 0.00 | 85 | 1008.3 |
| 20260505161319 | 23 | 217 | 11.3 | 27.4 | 0.00 | 0.00 | 0.00 | 85 | 1008.3 |
| 20260505160831 | 23 | 174 | 12.9 | 25.7 | 0.00 | 0.00 | 0.00 | 86 | 1008.3 |
| 20260505160318 | 23 | 207 | 14.5 | 24.1 | 0.00 | 0.00 | 0.00 | 86 | 1008.3 |
| 20260505153348 | 23 | 199 | 14.5 | 24.1 | 0.00 | 0.00 | 0.00 | 85 | 1008.6 |
| 20260505152822 | 23 | 229 | 12.9 | 24.1 | 0.00 | 0.00 | 0.00 | 85 | 1008.6 |
| 20260505152327 | 23 | 218 | 9.7 | 25.7 | 0.00 | 0.00 | 0.00 | 85 | 1008.6 |
| 20260505151840 | 23 | 215 | 9.7 | 32.2 | 0.00 | 0.00 | 0.00 | 85 | 1008.5 |
| 20260505151347 | 23 | 218 | 11.3 | 32.2 | 0.00 | 0.00 | 0.00 | 85 | 1008.5 |
| 20260505150840 | 23 | 192 | 9.7 | 29.0 | 0.00 | 0.00 | 0.00 | 85 | 1008.4 |
| 20260505150328 | 23 | 164 | 11.3 | 29.0 | 0.00 | 0.00 | 0.00 | 85 | 1008.4 |
| 20260505140324 | 22 | 219 | 8.0 | 25.7 | 0.00 | 0.00 | 0.00 | 84 | 1008.0 |
| 20260505124841 | 21 | 164 | 6.4 | 19.3 | 0.00 | 0.00 | 0.00 | 83 | 1007.7 |
| 20260505124326 | 21 | 169 | 9.7 | 16.1 | 0.00 | 0.00 | 0.00 | 83 | 1007.7 |
| 20260505123829 | 21 | 196 | 6.4 | 19.3 | 0.00 | 0.00 | 0.00 | 83 | 1007.5 |
| 20260505123347 | 21 | 178 | 9.7 | 24.1 | 0.00 | 0.00 | 0.00 | 83 | 1007.6 |
| 20260505122831 | 21 | 201 | 11.3 | 24.1 | 0.00 | 0.00 | 0.00 | 83 | 1007.5 |
| 20260505122321 | 21 | 225 | 8.0 | 20.9 | 0.00 | 0.00 | 0.00 | 83 | 1007.6 |
| 20260505121825 | 21 | 224 | 11.3 | 20.9 | 0.00 | 0.00 | 0.00 | 83 | 1007.5 |
| 20260505121317 | 21 | 208 | 9.7 | 22.5 | 0.00 | 0.00 | 0.00 | 83 | 1007.6 |
| 20260505120818 | 21 | 231 | 11.3 | 25.7 | 0.00 | 0.00 | 0.00 | 82 | 1007.4 |
| 20260505120322 | 21 | 218 | 11.3 | 25.7 | 0.00 | 0.00 | 0.00 | 82 | 1007.3 |
| 20260505115820 | 21 | 190 | 9.7 | 27.4 | 0.00 | 0.00 | 0.00 | 82 | 1007.4 |
| 20260505115322 | 21 | 199 | 9.7 | 27.4 | 0.00 | 0.00 | 0.00 | 82 | 1007.2 |
| 20260505114835 | 21 | 232 | 9.7 | 20.9 | 0.00 | 0.00 | 0.00 | 82 | 1007.0 |
| 20260505114318 | 21 | 221 | 11.3 | 27.4 | 0.00 | 0.00 | 0.00 | 82 | 1007.0 |
| 20260505113822 | 21 | 161 | 9.7 | 32.2 | 0.00 | 0.00 | 0.00 | 82 | 1007.1 |
| 20260505113338 | 21 | 210 | 9.7 | 32.2 | 0.00 | 0.00 | 0.00 | 82 | 1007.3 |
| 20260505112826 | 21 | 204 | 11.3 | 25.7 | 0.00 | 0.00 | 0.00 | 82 | 1007.3 |
| 20260505112327 | 21 | 186 | 12.9 | 29.0 | 0.00 | 0.00 | 0.00 | 82 | 1007.1 |
| 20260505111841 | 21 | 192 | 11.3 | 25.7 | 0.00 | 0.00 | 0.00 | 82 | 1007.0 |
| 20260505111330 | 21 | 199 | 9.7 | 25.7 | 0.00 | 0.00 | 0.00 | 82 | 1006.9 |